SWFO-L1

decayed
NORAD ID: 65726 Int'l Des: 2025-215 Owner: NOAA/NESD Country: US
NOTLE

Über SWFO-L1

Beschreibung wird geladen...

Höhenverlauf

Altitude vs Time

uPlot chart will show altitude changes over time

Zweizeiliger Elementsatz

1 65726U 25215B 25267.53063565 .00002517 -79589-5 00000-0 0 9995
2 65726 28.3800 11.9000 9893700 3.5500 0.0022 0.01790468 19
Epoch: 24. Sept. 2025 • Age: 4631 hours

Aktueller Status

Position data unavailable
Startdatum 24. Sept. 2025
Alter 0.5 years
Verglühungsdatum 26. Sept. 2025
Typ other

Technische Details

Klassifizierung Payload
Masse 377.00 kg
Trockenmasse 304.00 kg
Gesamtmasse 377.00 kg
Länge 2.00 m
Durchmesser 1.50 m
Spannweite 7.30 m
Form Box+boom
Hersteller BAEB
Bus-Typ Evolve
Phasenstatus Deep Space
Besitzer/Staat NOAA/NESD/US

Große Konstellationen

Loading constellations...